PPR-pyyntö

Ennakkolupa on pakollinen lentoonlähtöjä ja laskuja varten. Pyydä ennakkolupa tästä.

Laskukierrosvaraus

Tee ensin PPR-pyyntö, sitten vasta laskukierrosvaraus. Hinta 5 € / 15 min.

Aerodrome Info

Updated 21 JUL 2018 19:08 LT

  • Small water puddles at Apron 1 Preferred rwy 18 EFHF ATIS u/s

Contact duty officer at +358 20 7545 129 for more information.

Weather


Helsinki Malmi lentokenttä
AWS ILHF 211650Z AUTO 20009KT 9999 //////CB 24/19 Q1004=



Helsinki-Malmin lentoasema

Tervetuloa Helsinki-Malmin lentokentälle

Malmin lentokenttäyhdistys ry toimii Suomen vilkkaimman yleisilmailukentän, Helsinki-Malmin operaattorina. Yhdistyksen toiminnassa ovat mukana kentällä toimivat yhteisöt sekä suuri joukko yleisilmailijoita.

Malmin lentokentän toiminta rahoitetaan jäsen- ja kausikorttimaksuin. Ole mukana jatkamassa Malmin lentotoimintaa ja liity jäseneksi!